timestamp,wind_dir_avg,wind_spd_avg,wind_spd_max_dir,wind_spd_gust,battery_voltage,lat,long
2020-11-06 00:04:01+00:00,227.0,10.61,230.0,12.57,12.65,47.59359,-54.27349
2020-11-06 00:14:01+00:00,230.0,9.58,224.0,12.36,12.57,47.59359,-54.27349
2020-11-06 00:24:01+00:00,232.0,10.28,236.0,11.76,12.57,47.59359,-54.27349
2020-11-06 00:34:01+00:00,227.0,13.25,225.0,16.11,12.57,47.59359,-54.27349
2020-11-06 00:44:01+00:00,228.0,11.11,230.0,13.19,12.57,47.59359,-54.27349
2020-11-06 00:54:01+00:00,227.0,12.3,232.0,13.97,12.57,47.59359,-54.27349
2020-11-06 01:04:01+00:00,227.0,11.19,220.0,13.69,12.57,47.59359,-54.27349
2020-11-06 01:14:01+00:00,221.0,12.45,216.0,14.16,12.57,47.59359,-54.27349
2020-11-06 01:24:01+00:00,226.0,11.95,237.0,14.24,12.57,47.59359,-54.27349
2020-11-06 01:34:01+00:00,223.0,13.84,224.0,15.65,12.57,47.59359,-54.27349
2020-11-06 01:44:01+00:00,228.0,11.37,229.0,14.03,12.57,47.59359,-54.27349
2020-11-06 01:54:01+00:00,230.0,11.45,227.0,13.61,12.57,47.59359,-54.27349
2020-11-06 02:04:01+00:00,224.0,11.77,224.0,13.59,12.57,47.59359,-54.27349
2020-11-06 02:14:01+00:00,229.0,10.97,220.0,15.44,12.57,47.59359,-54.27349
2020-11-06 02:24:01+00:00,230.0,10.54,227.0,11.72,12.57,47.59359,-54.27349
2020-11-06 02:34:01+00:00,226.0,11.46,227.0,13.22,12.57,47.59359,-54.27349
2020-11-06 02:44:01+00:00,224.0,11.97,229.0,14.87,12.57,47.59359,-54.27349
2020-11-06 02:54:01+00:00,227.0,12.17,230.0,14.31,12.57,47.59359,-54.27349
2020-11-06 03:04:01+00:00,225.0,13.43,225.0,16.22,12.57,47.59359,-54.27349
2020-11-06 03:14:01+00:00,223.0,12.62,219.0,14.64,12.57,47.59359,-54.27349
2020-11-06 03:24:01+00:00,226.0,13.18,228.0,15.84,12.57,47.59359,-54.27349
2020-11-06 03:34:01+00:00,229.0,12.09,229.0,15.32,12.57,47.59359,-54.27349
2020-11-06 03:44:01+00:00,227.0,12.12,224.0,14.3,12.57,47.59359,-54.27349
2020-11-06 03:54:01+00:00,219.0,13.41,220.0,15.76,12.57,47.59359,-54.27349
2020-11-06 04:04:01+00:00,225.0,13.44,228.0,15.96,12.57,47.59359,-54.27349
2020-11-06 04:14:01+00:00,218.0,12.48,226.0,17.24,12.49,47.59359,-54.27349
2020-11-06 04:24:01+00:00,219.0,14.86,222.0,18.36,12.49,47.59359,-54.27349
2020-11-06 04:34:01+00:00,215.0,14.27,209.0,19.03,12.49,47.59359,-54.27349
2020-11-06 04:44:01+00:00,223.0,13.01,233.0,16.58,12.49,47.59359,-54.27349
2020-11-06 04:54:01+00:00,217.0,15.74,215.0,18.17,12.49,47.59359,-54.27349
2020-11-06 05:04:01+00:00,216.0,13.36,217.0,15.19,12.49,47.59359,-54.27349
2020-11-06 05:14:01+00:00,221.0,13.49,225.0,15.47,12.49,47.59359,-54.27349
2020-11-06 05:24:01+00:00,228.0,13.49,233.0,15.99,12.49,47.59359,-54.27349
2020-11-06 05:34:01+00:00,227.0,13.68,224.0,16.17,12.49,47.59359,-54.27349
2020-11-06 05:44:01+00:00,222.0,12.7,226.0,14.39,12.49,47.59359,-54.27349
2020-11-06 05:54:01+00:00,225.0,12.82,224.0,14.63,12.49,47.59359,-54.27349
2020-11-06 06:04:01+00:00,229.0,13.38,231.0,15.83,12.49,47.59359,-54.27349
2020-11-06 06:14:01+00:00,221.0,12.94,230.0,14.9,12.49,47.59359,-54.27349
2020-11-06 06:24:01+00:00,227.0,12.35,230.0,14.52,12.49,47.59359,-54.27349
2020-11-06 06:34:01+00:00,224.0,11.49,229.0,14.13,12.49,47.59359,-54.27349
2020-11-06 06:44:01+00:00,226.0,12.1,224.0,14.63,12.49,47.59359,-54.27349
2020-11-06 06:54:01+00:00,225.0,13.06,227.0,14.85,12.49,47.59359,-54.27349
2020-11-06 07:04:01+00:00,222.0,11.78,227.0,13.92,12.49,47.59359,-54.27349
2020-11-06 07:14:01+00:00,219.0,13.08,216.0,14.8,12.41,47.59359,-54.27349
2020-11-06 07:24:01+00:00,219.0,12.81,216.0,15.09,12.41,47.59359,-54.27349
2020-11-06 07:34:01+00:00,224.0,13.17,227.0,15.1,12.41,47.59359,-54.27349
2020-11-06 07:44:01+00:00,220.0,12.19,214.0,13.75,12.41,47.59359,-54.27349
2020-11-06 07:54:01+00:00,219.0,12.22,219.0,15.89,12.41,47.59359,-54.27349
2020-11-06 08:04:01+00:00,223.0,12.58,223.0,15.01,12.41,47.59359,-54.27349
2020-11-06 08:14:01+00:00,218.0,12.2,223.0,15.05,12.41,47.59359,-54.27349
2020-11-06 08:24:01+00:00,221.0,11.18,218.0,12.64,12.41,47.59359,-54.27349
2020-11-06 08:34:01+00:00,223.0,12.14,217.0,14.62,12.41,47.59359,-54.27349
2020-11-06 08:44:01+00:00,224.0,10.55,220.0,13.09,12.41,47.59359,-54.27349
2020-11-06 08:54:01+00:00,219.0,10.05,218.0,12.02,12.41,47.59359,-54.27349
2020-11-06 09:04:01+00:00,223.0,9.94,219.0,11.62,12.41,47.59359,-54.27349
2020-11-06 09:14:01+00:00,220.0,9.64,221.0,12.81,12.41,47.59359,-54.27349
2020-11-06 09:24:01+00:00,217.0,10.95,227.0,13.46,12.41,47.59359,-54.27349
2020-11-06 09:34:01+00:00,222.0,9.55,218.0,11.45,12.41,47.59359,-54.27349
2020-11-06 09:44:01+00:00,221.0,12.67,221.0,15.24,12.41,47.59359,-54.27349
2020-11-06 09:54:01+00:00,228.0,12.86,227.0,15.61,12.41,47.59359,-54.27349
2020-11-06 10:04:01+00:00,225.0,14.04,226.0,15.98,12.41,47.59359,-54.27349
2020-11-06 10:14:01+00:00,226.0,13.66,227.0,17.14,12.41,47.59359,-54.27349
2020-11-06 10:24:01+00:00,221.0,12.81,224.0,15.0,12.41,47.59359,-54.27349
2020-11-06 10:34:01+00:00,219.0,12.72,225.0,15.01,12.41,47.59359,-54.27349
2020-11-06 10:44:01+00:00,218.0,12.37,218.0,15.41,12.41,47.59359,-54.27349
2020-11-06 10:54:01+00:00,223.0,13.77,226.0,15.76,12.41,47.59359,-54.27349
2020-11-06 11:04:01+00:00,224.0,14.02,225.0,16.88,12.41,47.59359,-54.27349
2020-11-06 11:14:01+00:00,224.0,14.22,220.0,16.64,12.41,47.59359,-54.27349
2020-11-06 11:24:01+00:00,226.0,14.32,228.0,18.48,12.41,47.59359,-54.27349
2020-11-06 11:34:01+00:00,227.0,14.34,228.0,16.84,12.41,47.59359,-54.27349
2020-11-06 11:44:01+00:00,225.0,14.77,222.0,17.75,12.41,47.59359,-54.27349
2020-11-06 11:54:01+00:00,225.0,14.34,219.0,17.29,12.41,47.59359,-54.27349
2020-11-06 12:04:01+00:00,228.0,13.74,217.0,17.14,12.41,47.59359,-54.27349
2020-11-06 12:14:01+00:00,224.0,15.16,224.0,17.33,12.41,47.59359,-54.27349
2020-11-06 12:24:01+00:00,226.0,14.59,229.0,18.44,12.41,47.59359,-54.27349
2020-11-06 12:34:01+00:00,224.0,16.27,227.0,19.17,12.41,47.59359,-54.27349
2020-11-06 12:44:01+00:00,226.0,14.51,230.0,18.17,12.41,47.59359,-54.27349
2020-11-06 12:54:01+00:00,222.0,14.4,219.0,17.11,12.41,47.59359,-54.27349
2020-11-06 13:04:01+00:00,220.0,11.34,225.0,13.83,12.41,47.59359,-54.27349
2020-11-06 13:14:01+00:00,226.0,14.74,228.0,18.18,12.49,47.59359,-54.27349
2020-11-06 13:24:01+00:00,222.0,14.34,216.0,16.62,12.49,47.59359,-54.27349
2020-11-06 13:34:01+00:00,217.0,13.35,219.0,14.86,12.49,47.59359,-54.27349
2020-11-06 13:44:01+00:00,222.0,11.99,219.0,14.49,12.49,47.59359,-54.27349
2020-11-06 13:54:01+00:00,229.0,12.96,234.0,15.41,12.49,47.59359,-54.27349
2020-11-06 14:04:01+00:00,227.0,14.06,230.0,16.61,12.49,47.59359,-54.27349
2020-11-06 14:14:01+00:00,229.0,13.22,236.0,15.26,12.57,47.59359,-54.27349
2020-11-06 14:24:01+00:00,228.0,13.22,225.0,15.8,12.57,47.59359,-54.27349
2020-11-06 14:34:01+00:00,232.0,14.03,231.0,17.03,12.57,47.59359,-54.27349
2020-11-06 14:44:01+00:00,232.0,13.03,235.0,15.97,12.57,47.59359,-54.27349
2020-11-06 14:54:01+00:00,229.0,12.39,237.0,14.81,12.57,47.59359,-54.27349
2020-11-06 15:04:01+00:00,232.0,12.28,238.0,14.88,12.57,47.59359,-54.27349
2020-11-06 15:14:01+00:00,234.0,12.28,230.0,15.11,13.05,47.59359,-54.27349
2020-11-06 15:24:01+00:00,231.0,12.23,232.0,14.22,13.05,47.59359,-54.27349
2020-11-06 15:34:01+00:00,234.0,12.14,241.0,14.93,13.05,47.59359,-54.27349
2020-11-06 15:44:01+00:00,231.0,11.8,222.0,14.1,13.05,47.59359,-54.27349
2020-11-06 15:54:01+00:00,231.0,11.52,234.0,13.9,13.05,47.59359,-54.27349
2020-11-06 16:04:01+00:00,231.0,10.55,241.0,12.68,13.05,47.59359,-54.27349
2020-11-06 16:14:01+00:00,229.0,9.6,235.0,11.58,13.05,47.59359,-54.27349
2020-11-06 16:24:01+00:00,228.0,10.01,230.0,12.61,13.05,47.59359,-54.27349
2020-11-06 16:34:01+00:00,229.0,10.44,229.0,12.74,13.05,47.59359,-54.27349
2020-11-06 16:44:01+00:00,229.0,11.67,231.0,13.78,13.05,47.59359,-54.27349
2020-11-06 16:54:01+00:00,228.0,10.19,223.0,12.0,13.05,47.59359,-54.27349
2020-11-06 17:04:01+00:00,226.0,10.51,216.0,11.8,13.05,47.59359,-54.27349
2020-11-06 17:14:01+00:00,226.0,11.5,228.0,14.46,13.13,47.59359,-54.27349
2020-11-06 17:24:01+00:00,234.0,11.55,241.0,15.02,13.13,47.59359,-54.27349
2020-11-06 17:34:01+00:00,230.0,11.99,236.0,14.31,13.13,47.59359,-54.27349
2020-11-06 17:44:01+00:00,229.0,11.25,226.0,13.82,13.13,47.59359,-54.27349
2020-11-06 17:54:01+00:00,226.0,11.29,220.0,14.07,13.13,47.59359,-54.27349
2020-11-06 18:04:01+00:00,229.0,11.63,234.0,13.29,13.13,47.59359,-54.27349
2020-11-06 18:14:01+00:00,227.0,11.35,229.0,14.48,13.05,47.59359,-54.27349
2020-11-06 18:24:01+00:00,222.0,10.07,221.0,12.09,13.05,47.59359,-54.27349
2020-11-06 18:34:01+00:00,227.0,11.22,224.0,13.24,13.05,47.59359,-54.27349
2020-11-06 18:44:01+00:00,221.0,9.72,224.0,11.89,13.05,47.59359,-54.27349
2020-11-06 18:54:01+00:00,217.0,10.51,217.0,12.36,13.05,47.59359,-54.27349
2020-11-06 19:04:01+00:00,218.0,9.52,223.0,11.75,13.05,47.59359,-54.27349
2020-11-06 19:14:01+00:00,228.0,11.4,222.0,13.13,12.81,47.59359,-54.27349
2020-11-06 19:24:01+00:00,228.0,9.5,237.0,10.81,12.81,47.59359,-54.27349
2020-11-06 19:34:01+00:00,229.0,10.65,229.0,12.3,12.81,47.59359,-54.27349
2020-11-06 19:44:01+00:00,226.0,9.69,228.0,11.0,12.81,47.59359,-54.27349
2020-11-06 19:54:01+00:00,223.0,10.55,224.0,12.28,12.81,47.59359,-54.27349
2020-11-06 20:04:01+00:00,224.0,10.99,223.0,13.35,12.81,47.59359,-54.27349
2020-11-06 20:14:01+00:00,219.0,8.89,215.0,10.6,12.65,47.59359,-54.27349
2020-11-06 20:24:01+00:00,226.0,9.92,230.0,11.85,12.65,47.59359,-54.27349
2020-11-06 20:34:01+00:00,226.0,11.2,223.0,12.39,12.65,47.59359,-54.27349
2020-11-06 20:44:01+00:00,219.0,8.59,214.0,10.56,12.65,47.59359,-54.27349
2020-11-06 20:54:01+00:00,219.0,8.97,220.0,10.73,12.65,47.59359,-54.27349
2020-11-06 21:04:01+00:00,219.0,10.3,226.0,11.26,12.65,47.59359,-54.27349
2020-11-06 21:14:01+00:00,219.0,8.9,225.0,9.98,12.57,47.59359,-54.27349
2020-11-06 21:24:01+00:00,217.0,9.75,216.0,10.64,12.57,47.59359,-54.27349
2020-11-06 21:34:01+00:00,217.0,9.9,217.0,10.93,12.57,47.59359,-54.27349
2020-11-06 21:44:01+00:00,213.0,10.93,214.0,11.77,12.57,47.59359,-54.27349
2020-11-06 21:54:01+00:00,212.0,11.2,219.0,12.4,12.57,47.59359,-54.27349
2020-11-06 22:04:01+00:00,212.0,9.2,210.0,10.54,12.57,47.59359,-54.27349
2020-11-06 22:14:01+00:00,214.0,8.72,210.0,10.35,12.49,47.59359,-54.27349
2020-11-06 22:24:01+00:00,211.0,9.24,210.0,10.21,12.49,47.59359,-54.27349
2020-11-06 22:34:01+00:00,213.0,9.63,214.0,10.92,12.49,47.59359,-54.27349
2020-11-06 22:44:01+00:00,216.0,9.0,217.0,9.94,12.49,47.59359,-54.27349
2020-11-06 22:54:01+00:00,217.0,8.56,219.0,10.04,12.49,47.59359,-54.27349
2020-11-06 23:04:01+00:00,221.0,9.31,222.0,10.67,12.49,47.59359,-54.27349
2020-11-06 23:14:01+00:00,222.0,8.93,225.0,10.39,12.41,47.59359,-54.27349
2020-11-06 23:24:01+00:00,225.0,9.0,221.0,10.2,12.41,47.59359,-54.27349
2020-11-06 23:34:01+00:00,220.0,8.7,218.0,9.67,12.41,47.59359,-54.27349
2020-11-06 23:44:01+00:00,224.0,8.55,228.0,10.77,12.41,47.59359,-54.27349
2020-11-06 23:54:01+00:00,221.0,6.94,220.0,8.01,12.41,47.59359,-54.27349
